Theta_e
316 316 316 316 316 316 317 317 318 318 319 319 320 321 321 321 320 321 315 321 322 330 328 318 315 317 316 315 316 315 307 304 305 306 308 314 312 316 325 327 328 333 338 343 348
316 316 315 316 316 316 316 316 317 318 318 319 319 320 320 320 319 315 324 334 335 334 317 314 311 314 312 312 313 310 306 305 310 311 310 312 312 313 318 328 328 333 343 345 349
315 315 315 315 315 315 315 316 316 317 318 318 319 319 320 322 316 316 329 335 337 330 315 316 316 314 310 312 311 310 306 309 309 311 312 311 313 314 318 323 327 328 336 344 345
314 315 314 314 315 315 315 315 316 317 317 317 318 318 320 323 308 322 338 338 338 322 317 317 315 311 309 307 311 306 309 309 310 311 311 310 314 312 319 325 330 332 337 345 342
314 314 314 314 314 314 314 315 315 316 316 316 317 319 321 313 312 330 341 337 322 318 316 315 314 312 307 308 309 306 308 309 311 311 312 313 311 312 318 327 318 319 338 343 343
314 314 314 314 314 314 315 315 315 315 315 316 317 318 318 307 318 332 325 322 320 318 317 319 315 316 311 310 308 310 309 310 311 311 312 310 311 311 316 319 316 321 328 341 342
313 313 313 314 314 314 315 315 315 315 315 317 319 322 313 311 321 329 325 321 320 319 316 318 318 315 313 310 313 311 307 310 310 311 310 312 308 308 315 315 315 316 320 329 343
313 313 313 313 314 314 314 314 316 316 317 319 321 320 311 318 322 322 324 320 320 320 318 320 319 316 313 314 310 307 308 304 309 310 310 310 304 311 315 314 314 315 317 320 329
313 312 312 313 313 313 313 314 318 319 320 321 320 315 311 317 315 319 322 318 317 317 317 317 317 313 312 307 305 306 301 303 305 310 309 309 305 311 315 314 314 316 317 319 321
312 311 312 312 312 313 313 315 322 321 321 322 319 312 316 314 318 318 321 320 316 314 312 312 313 309 309 306 298 300 301 302 303 308 309 308 308 311 313 313 313 314 316 316 317
312 311 311 312 312 312 316 323 317 317 318 311 311 312 311 319 321 317 318 317 316 313 308 312 306 304 306 307 306 304 303 302 305 309 308 308 308 310 313 313 314 315 317 318 320
311 311 311 312 312 312 318 315 312 313 308 314 313 313 315 316 311 315 319 312 311 306 310 307 303 308 308 307 305 304 302 303 307 309 308 308 307 310 313 314 316 316 317 319 321
310 310 312 312 312 316 316 312 316 317 309 308 311 312 313 315 309 312 316 314 309 306 307 304 306 308 307 305 304 305 303 304 304 307 309 307 305 308 312 315 316 317 318 319 320
309 310 311 310 312 318 315 315 317 318 304 302 310 313 315 314 308 315 318 314 311 306 308 307 310 306 305 304 306 302 307 306 304 304 299 307 298 306 310 311 313 315 316 317 319
309 310 310 309 316 312 312 316 319 317 293 307 309 318 315 310 311 311 318 315 308 308 308 305 306 305 304 305 307 304 307 306 306 304 304 303 300 305 310 308 310 312 313 314 317
309 310 309 313 318 314 316 319 320 303 291 304 310 308 308 309 310 312 311 315 314 309 310 308 311 308 307 308 308 308 306 306 306 304 297 302 301 302 305 309 309 310 311 313 315
308 309 311 315 310 315 317 318 301 294 302 301 303 306 306 305 306 308 307 306 304 301 302 306 306 309 309 306 308 307 304 297 295 295 294 304 301 303 309 311 310 308 309 312 314
306 306 311 314 316 315 318 307 293 296 299 305 304 303 300 304 304 305 305 303 304 304 302 300 299 307 310 306 304 305 304 297 291 292 295 302 298 303 309 309 309 309 310 311 312
305 314 317 315 316 318 310 298 297 299 302 301 302 299 300 303 303 303 302 302 301 304 300 299 300 306 307 307 307 304 301 307 300 301 296 298 301 305 307 306 307 307 308 309 310
308 309 315 314 318 315 304 296 300 304 302 302 296 300 296 299 299 301 301 301 300 304 307 302 297 302 305 307 306 305 306 299 300 291 290 295 298 300 303 303 305 305 306 308 309
310 305 312 314 318 308 299 299 301 303 302 300 299 299 299 298 299 298 299 301 302 304 308 304 300 299 302 301 298 300 300 301 301 299 292 291 295 307 307 306 305 305 306 306 307
306 301 311 314 303 306 302 300 297 301 302 301 301 300 299 298 297 296 296 299 300 302 298 305 301 293 294 299 301 300 298 299 293 294 298 296 296 307 308 306 305 305 306 306 307
301 303 311 311 298 302 301 299 299 299 300 299 299 300 300 298 295 297 297 299 301 300 299 302 299 291 291 293 296 295 297 297 297 295 293 290 295 305 305 304 305 304 305 305 307
301 297 305 304 303 297 295 295 296 301 300 300 299 300 299 297 299 296 297 298 299 301 299 300 297 293 288 291 293 290 291 294 294 290 292 294 295 300 302 303 303 303 305 305 306
302 299 298 295 298 296 297 295 294 294 300 300 299 299 298 296 296 296 298 298 298 299 299 299 293 294 294 294 294 292 291 292 291 293 290 293 294 297 299 301 301 304 305 304 304
297 296 301 296 297 295 293 295 294 295 296 296 297 297 299 297 298 295 297 297 296 298 298 298 293 293 291 293 292 290 292 293 292 292 293 293 293 299 300 303 303 303 303 302 303
303 304 298 297 295 294 295 295 294 295 298 298 297 297 296 298 299 301 302 301 300 298 297 297 294 292 287 290 290 287 291 292 292 294 293 289 295 301 300 300 301 302 303 302 303
Wind_Speed
19 18 17 16 15 14 13 11 11 10 8 8 8 6 6 6 6 8 8 2 6 14 7 10 10 9 9 7 7 5 8 10 12 8 6 2 3 1 1 5 9 4 1 5 15
20 19 18 18 16 15 14 13 12 11 9 8 8 6 5 4 10 11 5 7 11 14 13 13 12 12 10 8 7 10 10 8 3 1 3 5 4 5 6 7 7 9 5 7 15
21 20 19 19 18 16 15 14 13 12 10 9 8 7 5 8 8 6 8 9 12 13 8 8 10 12 9 9 8 8 10 4 6 4 7 7 7 3 6 9 7 10 9 10 15
22 21 20 19 18 17 16 15 13 11 10 9 7 6 5 9 1 8 10 12 11 11 12 10 11 11 8 10 8 9 6 6 2 4 6 7 7 6 6 2 3 1 1 11 15
22 22 22 20 19 18 17 15 14 11 9 7 5 5 6 8 2 7 13 12 15 13 13 11 11 7 10 7 8 11 5 6 7 7 7 9 9 5 9 5 1 1 5 10 13
22 21 21 21 20 18 16 14 12 9 6 5 4 4 6 7 5 8 17 18 14 14 11 8 4 3 4 6 11 5 4 6 7 10 6 9 8 5 9 7 5 2 7 8 12
23 22 22 21 20 19 16 13 10 8 6 5 5 6 7 5 3 8 14 15 11 12 10 5 2 8 4 7 4 5 10 11 12 13 10 8 11 10 8 4 10 7 7 7 11
24 23 23 22 21 19 18 15 8 6 6 7 7 6 6 4 6 8 12 9 7 6 3 5 2 5 7 2 7 10 7 12 13 12 8 10 15 15 10 9 12 11 9 8 12
25 24 23 22 21 19 16 12 3 7 6 9 7 6 2 6 8 12 12 11 11 8 5 3 6 6 6 11 11 11 12 9 8 10 6 14 13 8 5 7 12 11 12 10 5
26 25 24 22 21 17 12 4 6 11 7 6 2 6 6 1 7 7 10 9 11 12 9 10 8 10 11 10 11 6 12 8 11 13 10 14 13 7 1 5 4 4 8 4 2
27 27 25 22 18 13 5 5 7 8 8 9 7 9 1 7 7 8 13 13 12 14 16 14 12 14 12 7 6 9 7 8 7 8 9 12 12 8 3 5 6 6 7 6 6
30 27 26 22 17 10 6 4 5 6 8 8 10 11 11 5 6 11 14 14 13 17 17 9 16 14 5 8 10 9 11 12 10 8 12 12 10 6 6 7 7 8 9 9 9
30 28 25 21 15 5 9 8 9 4 8 1 1 2 1 12 12 12 18 18 14 17 16 18 3 6 11 11 12 13 12 9 11 10 14 10 12 11 8 9 9 9 9 11 11
31 28 24 21 2 3 3 9 9 5 6 5 3 4 2 2 6 11 15 12 13 16 17 13 14 11 10 11 12 14 12 11 8 12 14 18 12 20 14 9 7 8 8 9 10
31 27 20 13 4 4 9 11 4 5 5 4 5 3 1 5 5 5 13 12 16 15 8 14 14 13 15 14 16 14 5 11 10 12 15 14 13 13 16 14 9 8 8 8 9
30 26 21 3 3 7 11 7 5 8 2 4 3 4 1 1 2 4 9 13 7 18 12 18 2 9 12 7 9 6 8 11 11 13 15 18 15 14 19 16 11 8 7 8 8
30 22 11 6 8 15 10 5 6 5 3 4 3 6 2 3 2 2 5 11 11 13 18 18 20 16 9 15 12 12 14 12 15 15 15 18 19 7 10 11 10 8 7 8 8
32 19 2 3 10 9 7 6 6 3 2 2 3 5 5 6 4 1 6 9 6 7 11 14 14 17 17 17 18 19 20 15 21 15 15 8 13 8 11 10 8 7 7 7 8
29 3 4 9 8 6 7 5 4 2 3 4 8 8 4 3 5 2 0 1 4 9 3 9 12 7 8 8 10 18 13 14 19 19 11 10 4 7 11 11 8 7 5 6 7
9 5 2 14 7 6 5 3 2 1 3 4 7 1 7 1 8 4 6 2 5 6 7 6 9 6 17 10 3 11 6 9 11 20 19 14 16 9 19 15 10 6 4 5 6
6 6 7 14 4 5 5 2 3 1 3 5 4 6 7 8 7 6 2 6 1 4 4 4 6 8 11 8 10 12 8 6 9 7 8 14 9 10 16 14 10 5 3 4 6
6 5 8 11 5 1 3 3 3 4 4 5 6 8 7 3 5 4 4 3 2 2 1 3 5 9 15 18 13 17 19 14 8 9 9 10 5 6 11 10 4 2 1 4 5
9 5 4 7 4 1 2 3 3 4 4 3 5 5 3 5 6 5 3 3 3 1 1 6 7 8 8 5 6 9 13 13 8 5 20 14 6 9 9 8 5 2 3 4 5
6 5 1 4 3 5 6 6 6 2 6 5 5 5 6 7 5 3 6 6 1 3 4 2 9 11 12 8 2 4 6 8 11 8 13 16 4 10 8 8 6 4 3 5 5
3 4 4 5 1 8 6 5 9 6 3 4 6 12 10 7 8 8 6 6 7 5 4 5 9 10 12 14 13 15 14 13 16 15 16 13 14 6 4 7 10 3 4 6 7
6 6 1 9 7 8 3 5 6 3 5 5 10 2 7 11 9 4 6 6 5 5 5 5 7 7 13 11 12 17 17 17 18 17 18 16 16 11 6 4 4 3 5 7 10
2 2 5 3 6 6 4 3 2 4 6 2 4 7 9 3 4 5 6 5 5 7 8 8 7 6 10 3 9 12 13 16 18 16 11 14 5 8 5 3 3 5 8 11 12
Wind_Direction
357 353 350 347 344 340 334 329 322 316 308 297 287 283 286 294 277 208 235 86 164 161 224 159 186 183 197 193 227 251 241 217 189 197 130 122 309 106 319 225 214 158 1 80 143
354 351 348 345 342 339 334 329 322 316 309 299 288 280 276 281 260 244 101 133 142 166 181 185 181 183 192 195 197 231 244 224 49 46 247 300 295 326 238 178 183 187 121 135 154
352 349 346 343 339 335 331 326 320 314 310 304 297 290 281 270 252 108 140 154 169 189 196 189 168 196 194 194 184 192 252 79 197 259 301 298 270 319 251 193 187 204 145 161 169
347 345 343 341 337 332 327 322 316 311 308 303 299 294 291 243 315 112 161 160 179 208 173 172 182 195 200 200 185 231 237 236 230 273 281 286 328 245 248 61 83 223 257 172 182
343 342 341 338 335 330 324 317 310 305 300 292 286 279 251 224 167 107 149 163 180 186 183 187 188 197 199 190 192 234 218 234 237 256 270 289 263 283 222 177 155 69 174 183 185
341 339 337 335 333 329 320 310 298 290 278 265 247 240 247 249 88 124 160 169 185 194 187 201 198 246 171 196 232 159 229 242 243 237 225 258 237 235 213 182 185 224 203 186 191
339 338 336 334 332 329 323 314 292 269 247 221 213 242 250 302 110 143 169 183 190 202 185 185 210 222 158 184 207 215 245 217 226 228 230 236 229 221 230 221 232 214 208 225 195
338 337 335 334 332 332 330 324 291 210 187 183 196 231 272 117 156 175 181 180 195 205 273 167 257 257 248 81 205 238 237 247 201 204 199 227 237 192 221 223 233 235 233 218 212
337 336 335 335 334 334 331 325 99 146 151 162 198 244 248 133 203 200 196 187 176 183 184 160 243 253 191 231 228 207 252 215 158 208 176 212 234 206 174 233 248 258 244 244 280
337 335 336 334 333 331 323 281 122 154 175 207 261 233 199 122 136 165 192 207 177 171 177 212 222 229 223 232 254 236 232 220 232 172 213 195 229 143 258 237 227 251 236 227 267
336 334 335 333 330 330 285 204 211 176 199 282 315 281 263 134 167 181 173 181 197 192 208 203 230 227 236 231 321 271 265 251 225 165 231 209 207 117 97 123 119 116 118 104 64
336 336 334 332 327 315 253 43 45 341 293 279 268 276 262 269 238 168 181 192 196 207 212 188 231 253 257 230 240 235 236 241 236 198 224 183 183 135 115 93 92 101 85 76 64
337 337 335 330 323 274 64 48 329 274 264 30 329 305 36 214 234 195 196 207 207 217 201 234 216 12 230 214 230 225 245 238 262 178 217 211 165 163 133 120 105 86 81 70 58
339 340 337 325 315 1 88 347 323 223 264 97 137 95 157 227 207 237 214 203 220 233 227 239 249 222 228 241 227 245 210 244 239 217 210 209 224 183 163 146 127 111 85 75 68
341 341 337 345 336 18 338 325 307 221 263 74 89 117 112 266 332 138 209 210 240 218 246 220 230 227 234 244 233 247 222 236 235 235 250 195 248 168 174 165 142 107 81 62 53
339 337 327 240 236 9 325 310 217 231 158 131 68 357 168 61 70 120 198 234 275 253 224 265 302 269 252 267 241 219 221 233 244 247 230 241 213 206 187 165 144 118 84 60 45
337 336 325 299 342 326 316 228 240 257 118 84 0 340 339 27 62 298 186 196 242 231 233 231 241 228 234 247 204 229 235 234 221 224 236 232 225 220 87 120 136 128 97 67 44
333 323 155 307 331 318 276 246 253 57 28 38 326 298 304 347 93 123 174 162 62 292 274 269 238 230 201 240 255 222 230 243 250 243 241 180 226 130 121 115 131 124 90 64 44
316 314 258 357 335 297 282 250 352 1 2 328 299 277 197 196 296 210 57 90 48 21 287 328 248 59 29 306 261 241 242 263 274 270 254 202 126 146 158 156 158 128 103 65 37
321 307 58 337 330 278 261 307 275 322 313 260 275 241 274 254 279 257 190 109 134 90 32 51 284 28 3 285 221 276 350 221 226 252 249 257 231 224 180 173 163 154 103 59 26
287 306 42 339 275 238 274 7 284 238 302 265 279 263 272 292 283 283 356 103 275 277 302 116 134 257 332 342 9 325 258 268 300 263 274 259 228 338 164 163 167 150 94 47 11
310 309 21 329 262 296 281 357 2 275 221 251 274 273 269 270 265 254 253 3 25 307 7 180 200 240 249 242 290 306 296 308 292 251 267 286 306 104 120 132 157 153 87 22 351
326 299 356 307 313 315 347 271 262 267 253 246 239 244 224 238 252 245 202 112 70 20 159 154 207 267 177 194 204 221 233 254 268 316 277 263 277 125 135 156 174 284 342 315 342
300 304 50 53 53 339 337 280 261 220 262 266 271 234 222 231 211 232 214 173 285 120 69 179 251 264 283 315 25 241 213 204 216 240 254 268 225 163 192 222 231 242 260 298 319
352 56 4 316 134 326 280 287 277 268 233 254 221 236 232 238 228 222 211 186 196 134 203 247 254 263 274 287 281 269 269 252 236 254 263 281 289 294 247 253 301 354 282 311 316
328 331 313 285 293 275 201 242 277 293 266 215 260 262 242 243 239 211 211 216 260 154 210 198 265 287 274 265 270 271 267 261 257 256 258 268 272 280 319 252 203 257 294 300 308
35 186 280 264 267 266 277 305 280 306 224 269 332 278 238 254 318 313 291 296 276 252 219 234 262 257 275 357 290 265 257 246 252 250 257 256 297 115 169 207 271 294 298 301 306